User: anonymous   Login
Location: Prague
(50.0830°N, 14.4670°E)
Time: 22:20:22
(UTC+01:00)
Language:

SPROUT - Orbit

View from above orbital plane
View from above orbital plane
View from above satellite
View from above satellite

Ground track
Ground track

The orbit data is extracted from the following two-line orbital elements,

1 39770U 14029E   21335.57566359  .00001869  00000-0  20485-3 0  9998
2 39770  97.9295  86.8783 0008914  26.3666 333.7995 14.88950859408200
Epoch (UTC): 01 December 2021 13:48:57
Eccentricity: 0.0008914
inclination: 97.9295°
perigee height: 595 km
apogee height: 607 km
right ascension of ascending node: 86.8783°
argument of perigee: 26.3666°
revolutions per day: 14.88950859
mean anomaly at epoch: 333.7995°
orbit number at epoch: 40820

The dashed part of the orbit path shows where the satellite is in the earth's shadow,  

DLR